Weather History for Trinidad, CO

Change the Weather History Date:

Friday, February 1, 2013

  Actual Average Record
Temperature  
Mean Temperature 38 °F 33 °F  
Max Temperature 59 °F 48 °F 72 °F (1963)
Min Temperature 17 °F 18 °F -20 °F (1951)
Degree Days  
Heating Degree Days 27 32  
Month to date heating degree days 27 32  
Since 1 July heating degree days 3077 3314  
Cooling Degree Days 0 0  
Month to date cooling degree days 0 0  
Year to date cooling degree days 0 0  
Moisture  
Dew Point 11 °F    
Average Humidity 42    
Maximum Humidity 74    
Minimum Humidity 10    
Precipitation  
Precipitation 0.00 in 0.01 in 0.18 in (1982)
Month to date precipitation 0.00 0.01  
Year to date precipitation 0.08 0.41  
Sea Level Pressure  
Sea Level Pressure 30.10 in    
Wind  
Wind Speed 11 mph (WNW)    
Max Wind Speed 29 mph    
Max Gust Speed 36 mph    
Visibility 10 miles    
Events      
T = Trace of Precipitation, MM = Missing Value Source: NWS Daily Summary

Daily Weather History Graph

Daily Weather History Graph

Search for Another Location

Airport:

Trip Planner

Search our weather history database for the weather conditions in past years. The results will help you decide how hot, cold, wet, or windy it might be!

Date:

Astronomy

Feb. 01, 2013 Rise Set
Actual Time 7:00 AM MST 5:22 PM MST
Civil Twilight 6:32 AM MST 5:49 PM MST
Nautical Twilight 6:01 AM MST 6:20 PM MST
Astronomical Twilight 5:30 AM MST 6:51 PM MST
Moon 11:22 PM MST (2/1) 9:43 AM MST (2/1)
Length of Visible Light 11h 17m
Length of Day
10h 22m
Waning Gibbous, 69% of the Moon is Illuminated
Feb 1
Waning Gibbous
Feb 3
Last Quarter
Feb 10
New
Feb 17
First Quarter
Feb 25
Full

Hourly Weather History & Observations

Time (MST) Temp. Windchill Dew Point Humidity Pressure Visibility Wind Dir Wind Speed Gust Speed Precip Events Conditions
1:54 AM 25.0 °F 15.5 °F 12.9 °F 60% 30.10 in 10.0 mi West 9.2 mph - N/A   Clear
3:54 AM 19.0 °F 8.2 °F 10.9 °F 71% 30.11 in 10.0 mi West 9.2 mph - N/A   Clear
4:54 AM 23.0 °F 10.1 °F 12.0 °F 63% 30.08 in 10.0 mi West 15.0 mph - N/A   Clear
6:54 AM 21.0 °F 8.6 °F 10.9 °F 65% 30.11 in 10.0 mi WSW 12.7 mph - N/A   Clear
7:54 AM 27.0 °F 16.7 °F 12.9 °F 56% 30.14 in 10.0 mi WSW 11.5 mph - N/A   Clear
8:54 AM 33.1 °F - 16.0 °F 50% 30.10 in 10.0 mi Calm Calm - N/A   Clear
9:54 AM 42.1 °F 38.4 °F 12.9 °F 31% 30.06 in 10.0 mi SW 5.8 mph - N/A   Clear
10:54 AM 46.9 °F - 17.1 °F 30% 30.07 in 10.0 mi SSE 12.7 mph - N/A   Clear
1:54 PM 59.0 °F - 5.0 °F 12% 29.95 in 10.0 mi WNW 13.8 mph 31.1 mph N/A   Clear
2:54 PM 57.0 °F - -0.0 °F 10% 29.97 in 10.0 mi NW 25.3 mph 33.4 mph N/A   Clear
3:54 PM 55.9 °F - 1.0 °F 11% 29.98 in 10.0 mi NW 19.6 mph 29.9 mph N/A   Clear
4:54 PM 53.1 °F - 6.1 °F 15% 30.00 in 10.0 mi NNW 16.1 mph 24.2 mph N/A   Clear
5:54 PM 46.0 °F 39.9 °F 12.0 °F 25% 30.08 in 10.0 mi NW 13.8 mph - N/A   Clear
6:54 PM 41.0 °F 33.9 °F 12.9 °F 32% 30.15 in 10.0 mi NNW 12.7 mph - N/A   Clear
7:54 PM 41.0 °F 35.8 °F 10.9 °F 29% 30.16 in 10.0 mi North 8.1 mph - N/A   Clear
8:54 PM 36.0 °F 31.1 °F 12.0 °F 37% 30.19 in 10.0 mi NW 5.8 mph - N/A   Clear
9:54 PM 30.0 °F 23.2 °F 12.0 °F 47% 30.19 in 10.0 mi NW 6.9 mph - N/A   Clear
10:54 PM 28.9 °F 23.9 °F 12.0 °F 49% 30.19 in 10.0 mi SW 4.6 mph - N/A   Clear
11:54 PM 26.1 °F 18.4 °F 10.9 °F 53% 30.20 in 10.0 mi West 6.9 mph - N/A   Clear